カタログに戻る

STARLINK-34477

運用中通信VLEO
NORAD 64487·PAYLOAD·🇺🇸 United States

打ち上げ Jun 23, 2025 から Cape Canaveral Space Force Station

Loading…

次のパス (今後24時間)

TLE

最新Source: CelesTrak SupGP

元期: Sep 14, 2026, 22:43 UTC

1 64487C 25133R   26257.94701389  .00029635  00000+0  87580-3 0  2578
2 64487  53.1589 315.7652 0001208  85.0854 219.9097 15.34367433    19

AllMySatでSTARLINK-34477をリアルタイム追跡

Download on the App Store